STARLINK-37581, 69366

Orbit data source: Space-Track

STARLINK-37581, 69366 is a payload satellite owned by SpaceX/Seattle (US) in LEO that was launched on Thu, 04 Jun 2026 UTC via an FALCON 9 launch vehicle from the Air Force Eastern Test Range (AFETR). Payload-class satellites include a variety of spacecraft equipped with specific instruments for various scientific and technological missions. These include communications satellites like Starlink; space stations such as the ISS; scientific satellites like the Hubble; Earth observation satellites from companies like Planet Labs, Umbra, and HawkEye 360; GPS; miniature CubeSats for education and research; and military/defense satellites.

Loading next visibility...
Identifier
69366, 2026-123P
Orbit
LEO
Country
Flag of USUS
Related business
Manufacturer
SpaceX/Seattle
Mission
Operational spacecraft
Bus & Motor
STARLINK V2MO, Unknown motor
Mass
575 kg wet, ~530 kg dry
Launch date (UTC)
2026-06-04 (2 months ago)
Launch vehicle
FALCON 9
Launch site
Air Force Eastern Test Range (AFETR)
Object type
Payload
Rocket body
Debris
Shape & HBR
BOX + PAN, 17.7 m
Radar Cross Section
Large (>1 m²)

Expand to show TLE details & history
Last TLE update: 3 days ago

TLE from 3 days ago
0 STARLINK-37581
1 69366U 26123P   26205.17712979  .00236082  00000-0  14999-2 0  9997
2 69366  53.1594  56.6753 0001136  48.0588 312.0529 15.75264996  7884
Epoch: 2026-07-24T04:15Z
TLE epoch observation values (Epoch: 2026-07-24T04:15:04.013Z)
Latitude
-0.00004°
Longitude
51.00104°
Altitude
344.283 km
Speed
7.704 km/s
True Right ascension
03h 46m 42s
True Declination
0° 00' 00"
Sunlit
Object was in daylight at epoch
Visualization orbit readout
Latitude
Unknown
Longitude
Unknown
Altitude
Unknown
Speed
Unknown
Apparent Right ascension
Unknown
Apparent Declination
Unknown
Sunlit
N/A
Visualization observer readout
Local Sidereal Time
13:11:10
Azimuth
Unknown
Elevation
Unknown
Doppler factor
Unknown
Orbital elements
Apogee altitude
344.902 km
Perigee altitude
343.375 km
Semi-major axis
6,722.276 km
Eccentricity
0.00011
Inclination
53.1594°
RAAN
56.6753°
Arg. of periapsis
48.0588°
True anomaly
312.04323°
Mean anomaly
312.0529°
Eccentric anomaly
312.04807°
Mean motion
3.93794 °/min
Orbital period
91.42 mins
BSTAR
0.0014999
Loading maneuver chart data...
Computing Atmospheric mass density...
Loading historical data...
Loading historical data...
Loading historical data...
Loading historical data...
Loading historical data...
Loading historical data...
Loading historical data...

Documentation

Showing up to 5 results
|